Location: Dumpton Point
(51.3500°N, 1.4433°E)
Time: 01:13:05
(UTC+00:00)

Transit 2A - All Passes

Search period start: 25 September 2022 00:00
Search period end: 05 October 2022 00:00
Orbit: 601 x 956 km, 66.7° (Epoch: 24 September)

Date Brightness Start Highest point End Pass type
(mag) Time Alt. Az. Time Alt. Az. Time Alt. Az.
25 Sep - 00:04:36 10° SSE 00:08:00 21° ESE 00:11:19 10° ENE visible
25 Sep - 01:46:21 10° SW 01:50:44 59° NW 01:55:03 10° NNE visible
25 Sep - 03:31:52 10° WNW 03:34:45 17° NNW 03:37:39 10° NNE visible
25 Sep - 05:18:23 10° NNW 05:19:45 11° N 05:21:08 10° NNE daylight
25 Sep - 07:01:21 10° NNW 07:04:38 20° NNE 07:08:04 10° ENE daylight
25 Sep - 08:43:57 10° NW 08:48:29 73° NE 08:53:24 10° SE daylight
25 Sep - 10:27:50 10° WNW 10:31:12 20° WSW 10:34:45 10° SSW daylight
25 Sep - 23:31:20 10° SE 23:33:49 15° ESE 23:36:17 10° ENE visible
26 Sep - 01:11:53 10° SW 01:16:19 84° NW 01:20:42 10° NE visible
26 Sep - 02:56:49 10° WNW 03:00:06 20° NNW 03:03:23 10° NNE visible
26 Sep - 04:43:35 10° NNW 04:44:58 11° N 04:46:22 10° NNE visible
26 Sep - 06:27:05 10° NNW 06:29:59 17° NNE 06:32:59 10° ENE daylight
26 Sep - 08:09:37 10° NNW 08:14:03 53° NE 08:18:50 10° SE daylight
26 Sep - 09:53:03 10° WNW 09:56:59 28° WSW 10:01:12 10° S daylight
27 Sep - 00:37:33 10° SSW 00:41:58 69° SE 00:46:18 10° NE visible
27 Sep - 02:21:52 10° W 02:25:29 25° NW 02:29:08 10° NNE visible
27 Sep - 04:08:34 10° NNW 04:10:12 12° N 04:11:50 10° NNE visible
27 Sep - 05:52:48 10° NNW 05:55:17 14° NNE 05:57:49 10° NE daylight
27 Sep - 07:35:19 10° NNW 07:39:35 40° NE 07:44:10 10° ESE daylight
27 Sep - 09:18:26 10° NW 09:22:44 39° WSW 09:27:21 10° S daylight
28 Sep - 00:03:24 10° SSW 00:07:40 47° ESE 00:11:50 10° NE visible
28 Sep - 01:46:59 10° WSW 01:50:55 31° NW 01:54:52 10° NNE visible
28 Sep - 03:33:27 10° NW 03:35:26 13° NNW 03:37:27 10° NNE visible
28 Sep - 05:18:29 10° NNW 05:20:33 13° NNE 05:22:39 10° NE visible
28 Sep - 07:01:02 10° NNW 07:05:04 31° NE 07:09:21 10° E daylight
28 Sep - 08:43:56 10° NW 08:48:26 56° WSW 08:53:19 10° SSE daylight
28 Sep - 23:29:26 10° S 23:33:24 32° ESE 23:37:17 10° NE visible
29 Sep - 01:12:14 10° WSW 01:16:25 41° NW 01:20:34 10° NNE visible
29 Sep - 02:58:18 10° NW 03:00:42 14° NNW 03:03:08 10° NNE visible
29 Sep - 04:44:06 10° NNW 04:45:47 12° N 04:47:31 10° NNE visible
29 Sep - 06:26:45 10° NNW 06:30:30 25° NE 06:34:27 10° E daylight
29 Sep - 08:09:30 10° NW 08:14:05 78° SW 08:19:04 10° SSE daylight
29 Sep - 09:54:19 10° W 09:56:34 13° WSW 09:58:54 10° SW daylight
29 Sep - 22:55:43 10° SSE 22:59:11 23° ESE 23:02:35 10° ENE night (unlit)
30 Sep - 00:37:36 10° SW 00:41:57 57° NW 00:46:15 10° NNE visible
30 Sep - 02:23:11 10° WNW 02:26:01 17° NNW 02:28:52 10° NNE visible
30 Sep - 04:09:34 10° NNW 04:11:01 11° N 04:12:29 10° NNE visible
30 Sep - 05:52:30 10° NNW 05:55:54 20° NNE 05:59:26 10° ENE daylight
30 Sep - 07:35:07 10° NW 07:39:43 76° NE 07:44:41 10° SE daylight
30 Sep - 09:19:05 10° WNW 09:22:24 19° WSW 09:25:54 10° SSW daylight
30 Sep - 22:22:23 10° SE 22:25:00 16° ESE 22:27:35 10° ENE night (unlit)
01 Oct - 00:03:07 10° SW 00:07:32 80° NW 00:11:54 10° NE visible
01 Oct - 01:48:07 10° WNW 01:51:20 20° NNW 01:54:36 10° NNE visible
01 Oct - 03:34:49 10° NNW 03:36:15 11° N 03:37:41 10° NNE visible
01 Oct - 05:18:14 10° NNW 05:21:14 17° NNE 05:24:21 10° ENE visible
01 Oct - 07:00:47 10° NNW 07:05:17 56° NE 07:10:09 10° SE daylight
01 Oct - 08:44:16 10° WNW 08:48:11 27° WSW 08:52:23 10° S daylight
01 Oct - 21:50:14 10° ESE 21:50:52 10° ESE 21:51:30 10° E night (unlit)
01 Oct - 23:28:46 10° SSW 23:33:10 73° SE 23:37:30 10° NE visible
02 Oct - 01:13:09 10° W 01:16:43 24° NNW 01:20:19 10° NNE visible
02 Oct - 02:59:50 10° NNW 03:01:28 12° N 03:03:06 10° NNE visible
02 Oct - 04:43:58 10° NNW 04:46:33 15° NNE 04:49:12 10° NE visible
02 Oct - 06:26:29 10° NNW 06:30:49 42° NE 06:35:29 10° ESE daylight
02 Oct - 08:09:38 10° NW 08:13:56 38° WSW 08:18:35 10° S daylight
02 Oct - 22:54:34 10° SSW 22:58:51 49° ESE 23:03:04 10° NE night (unlit)
03 Oct - 00:38:16 10° W 00:42:09 30° NW 00:46:04 10° NNE visible
03 Oct - 02:24:44 10° NW 02:26:42 13° NNW 02:28:41 10° NNE visible
03 Oct - 04:09:38 10° NNW 04:11:49 13° NNE 04:14:02 10° NE visible
03 Oct - 05:52:11 10° NNW 05:56:18 32° NE 06:00:42 10° ESE daylight
03 Oct - 07:35:07 10° NW 07:39:38 53° WSW 07:44:33 10° SSE daylight
03 Oct - 22:20:35 10° S 22:24:34 34° ESE 22:28:30 10° NE night (unlit)
04 Oct - 00:03:30 10° WSW 00:07:37 40° NW 00:11:46 10° NNE visible
04 Oct - 01:49:36 10° NW 01:51:58 14° NNW 01:54:21 10° NNE visible
04 Oct - 03:35:16 10° NNW 03:37:03 12° N 03:38:53 10° NNE visible
04 Oct - 05:17:55 10° NNW 05:21:45 26° NE 05:25:48 10° E visible
04 Oct - 07:00:41 10° NW 07:05:17 75° SW 07:10:21 10° SSE daylight
04 Oct - 08:45:38 10° W 08:47:45 13° WSW 08:49:56 10° SW daylight
04 Oct - 21:46:49 10° SSE 21:50:21 24° ESE 21:53:49 10° ENE night (unlit)
04 Oct - 23:28:51 10° SW 23:33:09 54° NW 23:37:26 10° NNE visible
